SKYNET 5B

Last updated on Thu Sep 10 2026 00:02:56 GMT+0000 (Coordinated Universal Time)

1 32294U 07056B 26252.59060167 .00000122 00000+0 00000+0 0 9992 2 32294 5.4598 72.4527 0003656 103.9448 49.9778 1.00274829 69045
UTC large
Height (km)
Speed (km/s)
/
Latitude / Longitude
Inclination (degrees)
Orbital Period (minutes)
Azimuth
Elevation
Range (km)
Doppler Factor

Next 0 passes for location: London (51.5072 / 0.1276)

No passes found over London.
SKYNET 5B